CW5619 Weather Reports


Display with metric or nautical units.
time (UTC)temp
F
wind
direction
speed
MPH
gust
MPH
rain 1hr
in
rain 24hr
in
rain mn
in
humidity
%
barometer
mb
20260510020904 93 319 1.0 6.0 0.00 0.00 0.00 10 1008.1
20260510020404 93 358 2.0 6.0 0.00 0.00 0.00 9 1008.1
20260510015904 93 333 2.0 6.0 0.00 0.00 0.00 9 1008.0
20260510015404 94 316 1.0 3.0 0.00 0.00 0.00 9 1008.1
20260510014903 94 14 1.0 5.0 0.00 0.00 0.00 9 1008.0
20260510014404 94 322 2.0 5.0 0.00 0.00 0.00 9 1008.0
20260510013903 95 339 1.0 3.0 0.00 0.00 0.00 9 1007.9
20260510013403 95 207 1.0 5.0 0.00 0.00 0.00 9 1007.9
20260510012904 95 283 1.0 7.0 0.00 0.00 0.00 9 1008.0
20260510012403 96 313 3.0 7.0 0.00 0.00 0.00 9 1007.9
20260510011403 95 339 1.0 3.0 0.00 0.00 0.00 9 1007.9
20260510010903 96 292 2.0 8.0 0.00 0.00 0.00 9 1007.9
20260510010403 96 327 2.0 8.0 0.00 0.00 0.00 9 1007.8
20260510005903 96 304 3.0 6.0 0.00 0.00 0.00 9 1007.9
20260510005404 96 345 1.0 5.0 0.00 0.00 0.00 9 1007.9
20260510004903 96 336 3.0 6.0 0.00 0.00 0.00 9 1008.0
20260510004404 97 218 2.0 6.0 0.00 0.00 0.00 9 1008.0
20260510003903 96 70 0.0 5.0 0.00 0.00 0.00 9 1008.0
20260510003404 97 199 2.0 5.0 0.00 0.00 0.00 9 1008.0
20260510002904 97 350 2.0 5.0 0.00 0.00 0.00 8 1008.0
20260510002404 97 288 3.0 6.0 0.00 0.00 0.00 9 1008.1
20260510001404 98 216 2.0 9.0 0.00 0.00 0.00 9 1008.1
20260510000904 97 21 2.0 8.0 0.00 0.00 0.00 9 1008.1
20260510000404 98 341 3.0 7.0 0.00 0.00 0.00 8 1008.1
20260509235903 98 231 2.0 7.0 0.00 0.00 0.00 8 1008.2
20260509235404 98 213 2.0 7.0 0.00 0.00 0.00 8 1008.1
20260509234903 98 319 2.0 8.0 0.00 0.00 0.00 9 1008.4
20260509234404 98 357 2.0 8.0 0.00 0.00 0.00 9 1008.4
20260509233903 99 5 4.0 8.0 0.00 0.00 0.00 8 1008.5
20260509233404 99 324 2.0 8.0 0.00 0.00 0.00 8 1008.5
20260509232904 99 231 3.0 8.0 0.00 0.00 0.00 8 1008.5
20260509232404 100 236 3.0 8.0 0.00 0.00 0.00 8 1008.6
20260509231904 99 190 3.0 8.0 0.00 0.00 0.00 8 1008.6
20260509231403 100 52 2.0 12.0 0.00 0.00 0.00 8 1008.6
20260509230903 100 301 5.0 12.0 0.00 0.00 0.00 9 1008.6
20260509230404 100 325 2.0 12.0 0.00 0.00 0.00 8 1008.6
20260509225904 100 248 3.0 9.0 0.00 0.00 0.00 8 1008.7
20260509225404 100 244 2.0 6.0 0.00 0.00 0.00 8 1008.7
20260509224903 100 32 2.0 12.0 0.00 0.00 0.00 9 1008.8
20260509224404 100 48 3.0 12.0 0.00 0.00 0.00 8 1008.8
20260509223903 100 207 2.0 14.0 0.00 0.00 0.00 9 1008.9
20260509222903 101 251 3.0 14.0 0.00 0.00 0.00 8 1009.1
20260509222403 100 211 1.0 6.0 0.00 0.00 0.00 8 1009.1
20260509221904 101 328 2.0 6.0 0.00 0.00 0.00 8 1009.1
20260509221404 101 252 2.0 10.0 0.00 0.00 0.00 8 1009.3
20260509220904 101 39 5.0 12.0 0.00 0.00 0.00 8 1009.4
20260509220404 101 227 4.0 12.0 0.00 0.00 0.00 8 1009.5
20260509215404 100 227 3.0 9.0 0.00 0.00 0.00 9 1009.6
20260509214904 100 44 3.0 7.0 0.00 0.00 0.00 9 1009.6
20260509214403 99 218 3.0 10.0 0.00 0.00 0.00 9 1009.7
20260509213904 100 34 3.0 10.0 0.00 0.00 0.00 9 1009.9
20260509213403 101 233 5.0 12.0 0.00 0.00 0.00 9 1009.9
20260509212904 100 359 2.0 12.0 0.00 0.00 0.00 9 1009.8
20260509212404 100 305 5.0 9.0 0.00 0.00 0.00 9 1010.0
20260509211904 99 242 3.0 9.0 0.00 0.00 0.00 9 1010.0
20260509210903 100 225 5.0 9.0 0.00 0.00 0.00 9 1010.2
20260509210404 100 243 2.0 9.0 0.00 0.00 0.00 9 1010.3
20260509205903 100 211 2.0 7.0 0.00 0.00 0.00 9 1010.4
20260509205403 99 283 2.0 7.0 0.00 0.00 0.00 9 1010.5
20260509204904 99 151 1.0 7.0 0.00 0.00 0.00 9 1010.6
20260509204404 100 21 3.0 7.0 0.00 0.00 0.00 9 1010.6
20260509203903 101 235 2.0 5.0 0.00 0.00 0.00 9 1010.8
20260509203404 100 213 1.0 9.0 0.00 0.00 0.00 9 1010.8
20260509202904 100 228 2.0 9.0 0.00 0.00 0.00 9 1010.9
20260509202404 100 196 2.0 8.0 0.00 0.00 0.00 10 1011.0
20260509201903 99 217 3.0 9.0 0.00 0.00 0.00 9 1011.0
20260509201403 99 228 3.0 9.0 0.00 0.00 0.00 9 1011.1
20260509200904 99 230 3.0 9.0 0.00 0.00 0.00 9 1011.2
20260509200403 100 244 2.0 10.0 0.00 0.00 0.00 9 1011.4
20260509195903 99 247 3.0 12.0 0.00 0.00 0.00 9 1011.3
20260509195404 98 225 5.0 12.0 0.00 0.00 0.00 9 1011.3
20260509194903 98 217 3.0 8.0 0.00 0.00 0.00 10 1011.4
20260509194404 99 265 3.0 9.0 0.00 0.00 0.00 9 1011.5
20260509193904 99 273 3.0 9.0 0.00 0.00 0.00 9 1011.5
20260509193403 98 309 3.0 9.0 0.00 0.00 0.00 10 1011.6
20260509192903 98 218 2.0 9.0 0.00 0.00 0.00 10 1011.7
20260509192403 98 154 2.0 9.0 0.00 0.00 0.00 10 1011.7
20260509191904 97 218 3.0 7.0 0.00 0.00 0.00 10 1011.7
20260509191404 97 263 3.0 8.0 0.00 0.00 0.00 11 1011.8
20260509190904 98 197 2.0 10.0 0.00 0.00 0.00 10 1011.9
20260509190404 97 235 5.0 10.0 0.00 0.00 0.00 10 1012.0
20260509185904 96 352 3.0 6.0 0.00 0.00 0.00 11 1012.0
20260509184903 97 200 2.0 6.0 0.00 0.00 0.00 11 1012.1
20260509184404 96 351 2.0 6.0 0.00 0.00 0.00 11 1012.1
20260509183904 96 248 2.0 6.0 0.00 0.00 0.00 11 1012.2
20260509183404 95 191 1.0 9.0 0.00 0.00 0.00 12 1012.3
20260509182904 95 229 2.0 9.0 0.00 0.00 0.00 12 1012.4
20260509182404 94 287 2.0 6.0 0.00 0.00 0.00 13 1012.5
20260509181903 93 223 1.0 7.0 0.00 0.00 0.00 13 1012.5
20260509181404 94 226 3.0 7.0 0.00 0.00 0.00 12 1012.6
20260509180903 93 245 3.0 5.0 0.00 0.00 0.00 13 1012.7
20260509180403 93 262 1.0 3.0 0.00 0.00 0.00 13 1012.7
20260509175903 93 220 1.0 3.0 0.00 0.00 0.00 12 1012.8
20260509174904 92 234 2.0 5.0 0.00 0.00 0.00 14 1013.0
20260509174403 91 237 1.0 6.0 0.00 0.00 0.00 13 1012.9
20260509173903 92 229 3.0 6.0 0.00 0.00 0.00 13 1012.9
20260509173404 91 239 3.0 6.0 0.00 0.00 0.00 14 1013.0
20260509172904 90 53 1.0 6.0 0.00 0.00 0.00 14 1013.0
20260509172404 90 301 2.0 6.0 0.00 0.00 0.00 14 1013.1
20260509171404 90 274 2.0 3.0 0.00 0.00 0.00 15 1013.2
20260509170904 90 228 1.0 3.0 0.00 0.00 0.00 15 1013.2
20260509170404 90 255 2.0 3.0 0.00 0.00 0.00 15 1013.3
20260509023903 87 8 1.0 2.0 0.00 0.00 0.00 14 1010.0
20260509022902 88 339 0.0 3.0 0.00 0.00 0.00 13 1009.9
20260509022403 88 36 0.0 3.0 0.00 0.00 0.00 13 1009.8
20260509021902 89 315 1.0 3.0 0.00 0.00 0.00 13 1009.8
20260509021402 89 256 1.0 3.0 0.00 0.00 0.00 12 1009.7